Theta_e
311 311 311 311 311 310 309 309 308 307 305 304 302 300 298 297 296 295 294 294 294 294 294 293 292 292 291 291 291 291 291 291 291 291 291 291 291 291 291 291 292 291 292 291 291 291 291 291 291 291 291 291 291 291 291 291 291 291 291 291 291 291 291 291 291 291 291 291 291 291 291 291 290 290 290 291 291 291 291 291 291 291 291 292 292 292
310 309 309 309 308 307 306 305 304 302 301 299 298 297 296 295 295 294 294 294 293 293 292 292 291 291 291 291 291 291 291 291 291 291 291 291 291 291 291 291 292 291 291 291 291 291 291 291 291 290 290 291 291 291 291 291 291 290 290 290 290 290 290 290 290 290 290 290 290 290 290 290 290 290 290 290 290 290 290 291 291 291 291 292 292 292
308 307 306 306 305 304 302 301 299 298 297 296 295 295 295 294 294 294 294 293 292 292 291 291 291 291 290 290 291 291 291 291 291 291 291 291 291 291 291 291 291 291 291 291 291 291 290 290 290 290 290 290 290 290 290 290 290 290 290 290 290 290 290 290 290 290 289 289 289 290 290 290 290 290 290 290 290 290 290 291 291 291 291 291 292 292
305 304 303 302 302 300 298 297 296 296 296 295 295 295 294 293 293 293 292 292 291 291 291 290 290 290 290 290 290 291 291 291 291 291 291 291 291 291 291 291 291 291 291 291 290 290 290 290 290 290 290 290 290 290 290 290 290 290 290 290 290 290 289 289 289 289 289 289 289 289 289 290 290 290 290 290 290 290 290 290 291 291 291 291 291 292
302 301 300 299 298 297 297 296 295 295 295 295 294 293 293 292 292 291 291 291 291 290 290 290 290 290 290 290 291 291 291 291 291 291 291 291 291 291 291 291 291 291 290 290 290 290 290 290 290 290 290 290 290 290 290 290 290 290 289 289 289 289 289 289 289 289 288 288 289 289 289 289 289 289 289 290 290 290 290 290 290 291 291 291 291 291
300 300 299 298 297 297 297 296 296 295 294 293 292 291 291 291 290 290 290 290 290 290 290 290 290 290 290 291 291 291 291 291 291 291 291 291 291 291 291 290 290 290 290 290 290 290 290 290 290 290 290 290 290 290 290 290 289 289 289 289 289 289 289 289 288 288 288 288 288 289 289 289 289 289 289 289 289 290 290 290 290 290 291 291 291 291
300 300 300 299 298 297 296 295 294 293 292 291 291 290 290 290 290 289 289 290 290 290 290 290 290 290 291 290 290 291 291 291 291 291 291 290 290 290 290 290 290 290 290 290 290 290 290 290 290 290 290 290 290 290 290 289 289 289 289 289 289 289 288 288 288 288 288 288 288 289 289 289 289 289 289 289 289 289 289 289 290 290 290 290 290 291
299 299 299 297 296 294 293 292 292 291 291 290 290 290 289 289 289 289 289 290 290 290 290 291 291 291 290 290 291 291 291 291 291 290 290 290 290 290 290 290 290 290 290 290 290 290 290 290 290 290 290 290 290 290 289 289 289 289 289 289 289 288 288 288 288 288 288 288 288 289 289 289 289 289 289 289 289 289 289 289 289 289 290 290 290 290
296 296 295 294 293 292 291 290 290 290 290 289 289 289 289 289 289 289 290 290 290 290 290 291 291 291 291 291 291 291 291 291 291 290 290 290 290 290 290 290 290 290 290 290 290 290 290 290 290 290 290 290 290 289 289 289 289 289 289 288 288 288 288 288 288 288 288 288 289 289 289 289 289 289 289 289 289 289 289 289 289 289 289 290 290 290
293 293 292 292 291 291 290 289 289 289 289 289 288 289 289 289 290 290 290 290 290 290 290 291 291 291 291 291 291 291 291 291 290 290 290 290 290 290 290 290 290 290 290 290 290 290 290 290 290 290 290 290 289 289 289 289 289 289 288 288 288 288 288 288 288 288 288 288 288 289 289 289 289 289 289 289 289 289 289 289 289 289 289 289 289 290
291 291 291 290 290 289 289 289 289 288 288 288 288 288 289 289 289 290 290 291 291 291 291 291 291 291 291 291 291 291 291 291 290 290 290 290 290 290 290 290 290 290 290 290 290 290 290 290 290 289 289 289 289 289 289 289 289 289 288 288 288 288 288 288 288 288 288 288 288 288 288 288 288 289 289 289 289 289 289 289 289 289 289 289 289 289
290 290 290 289 289 289 288 288 288 288 288 289 289 289 289 289 289 290 290 290 291 291 291 291 291 291 291 291 291 291 291 291 291 290 290 290 290 290 290 290 290 290 290 290 290 289 289 289 289 289 289 289 289 289 289 289 289 289 289 288 288 288 288 288 288 288 288 288 288 288 288 288 288 288 288 288 288 289 289 289 289 289 289 289 289 289
289 289 289 288 288 288 288 288 288 288 289 289 289 290 290 289 290 290 290 290 290 290 291 291 291 291 291 290 290 290 290 290 290 290 291 290 290 290 290 290 290 290 290 290 290 289 289 289 289 289 289 289 289 289 289 289 289 289 289 289 289 289 288 288 288 288 288 288 288 288 288 288 288 288 288 288 288 288 288 289 289 289 289 289 289 289
288 288 288 288 288 288 288 289 289 289 289 289 289 290 290 290 290 290 290 289 289 290 290 290 290 290 290 290 290 290 290 290 290 290 290 291 290 290 290 290 290 290 290 290 290 289 289 289 289 289 289 289 289 289 289 289 289 289 289 289 289 289 288 288 288 288 288 288 288 288 288 288 288 288 288 288 288 288 288 288 288 288 289 289 289 289
287 287 288 288 288 288 289 289 289 289 289 289 289 289 289 289 289 289 289 289 289 290 290 290 290 290 290 290 290 290 290 289 290 290 290 291 290 290 290 290 290 290 290 290 290 290 289 289 289 289 289 289 289 289 289 289 289 289 289 289 289 289 289 288 288 288 288 288 288 288 288 288 288 288 288 288 288 288 288 288 288 288 289 289 289 289
287 287 288 288 289 289 289 289 289 289 289 289 289 289 289 289 289 289 289 289 289 289 289 290 290 290 291 290 290 290 289 289 289 289 290 291 290 290 290 290 290 290 290 290 290 290 290 289 290 290 290 290 289 289 289 289 289 289 289 289 289 289 289 288 288 288 288 288 288 288 288 288 288 288 288 288 288 288 288 288 288 288 288 289 289 289
288 288 288 289 289 289 289 289 289 289 289 289 289 288 289 289 289 289 289 289 289 289 289 289 290 290 291 291 290 290 289 289 288 289 289 290 290 290 290 289 289 289 290 290 290 289 289 290 290 290 290 289 289 289 289 289 289 289 289 289 289 289 288 288 288 288 288 288 288 288 288 288 288 288 288 288 288 288 288 288 288 288 288 288 288 288
288 289 289 289 289 289 289 289 288 288 288 288 288 288 288 288 288 288 288 288 288 289 289 289 289 289 290 290 290 289 289 288 288 288 289 290 290 290 289 289 289 289 289 290 289 289 289 289 289 289 289 289 289 289 289 289 289 289 289 289 289 289 288 288 288 288 288 288 288 288 288 288 288 288 288 288 288 288 288 288 288 288 288 288 288 288
289 289 289 289 289 289 288 288 288 288 288 288 288 288 288 288 288 288 288 288 288 288 288 288 288 289 289 289 289 289 288 288 287 287 288 289 289 289 289 289 288 289 289 289 289 289 289 289 289 289 289 289 289 289 289 289 289 289 289 289 289 288 288 288 288 288 288 288 288 288 288 288 288 288 288 288 288 288 288 288 288 288 288 288 288 288
288 288 289 289 289 288 288 288 288 288 288 288 288 288 288 288 288 288 288 288 288 288 288 288 288 288 288 289 289 289 288 288 287 287 287 288 288 289 288 288 288 288 289 289 289 289 289 289 289 289 289 289 289 289 289 289 289 289 289 289 289 288 288 288 288 289 289 289 289 288 288 288 288 288 288 288 288 288 288 288 288 288 288 288 288 288
288 288 288 288 288 288 288 288 288 288 288 288 288 288 288 288 288 288 288 288 288 288 288 288 288 288 288 288 289 288 288 287 287 286 286 287 288 288 288 287 287 288 288 289 289 289 289 289 289 290 290 289 289 289 289 289 289 289 289 289 289 289 289 289 289 289 289 289 289 289 288 288 288 288 288 288 288 288 288 288 288 288 288 288 288 288
288 288 288 288 288 288 288 288 288 287 287 287 287 287 288 288 288 288 288 288 287 287 287 287 288 288 288 288 288 288 287 287 286 286 286 286 287 288 287 287 287 287 288 288 289 289 289 289 289 290 290 290 290 290 290 289 289 289 289 289 289 289 289 289 289 289 289 289 289 288 288 288 288 288 288 288 288 288 288 288 288 288 288 288 288 288
288 288 288 288 287 288 287 287 288 287 287 287 287 287 287 287 287 287 287 287 287 287 287 288 288 288 288 288 288 288 287 287 286 285 285 285 286 287 287 287 287 287 288 288 288 289 289 289 290 290 290 290 290 290 290 289 289 289 289 289 289 289 289 289 289 289 289 289 288 288 288 288 288 288 288 288 288 288 288 288 288 288 288 288 288 288
288 288 287 287 287 287 287 287 287 287 287 287 287 287 287 287 287 287 287 287 287 287 288 288 288 288 288 288 288 288 287 287 286 285 285 285 286 286 287 287 286 287 287 288 288 288 289 290 290 290 290 290 290 290 290 290 290 290 290 290 290 289 289 289 289 289 289 288 288 288 288 288 288 288 288 288 288 288 288 288 288 288 288 288 288 288
287 287 287 287 287 287 287 287 287 287 287 287 287 287 287 287 287 287 287 287 287 287 287 288 288 288 288 289 289 288 288 287 286 285 285 285 285 286 286 286 286 286 287 288 288 288 289 290 290 290 290 290 290 290 290 290 290 290 290 290 290 289 289 289 289 289 289 288 288 288 288 288 288 288 288 288 288 288 288 288 288 288 288 288 288 288
287 287 287 287 287 287 287 287 287 287 287 287 287 287 287 287 287 287 287 287 287 287 287 287 288 288 288 288 288 288 288 287 286 285 285 284 285 285 286 286 285 285 286 287 288 288 288 289 289 289 289 289 289 289 289 289 289 289 289 289 289 289 289 289 289 289 289 289 289 289 288 288 288 288 288 288 288 288 288 288 288 288 288 288 288 288
287 287 287 287 287 287 287 287 287 287 287 287 287 287 287 287 287 287 288 288 288 287 287 287 287 287 287 288 288 288 288 287 286 285 284 284 284 284 285 285 285 285 286 286 287 287 287 288 288 289 289 289 289 289 289 289 289 289 289 289 289 289 289 289 289 289 289 289 289 289 288 288 288 288 288 288 288 288 288 288 288 288 288 288 288 289
287 287 287 287 287 287 287 287 287 288 287 287 287 287 287 288 287 287 287 288 287 287 287 286 286 286 286 286 287 288 287 287 285 284 284 284 284 284 284 284 285 285 285 286 286 287 287 287 287 288 288 288 288 288 288 288 288 288 288 288 289 289 289 289 289 289 289 289 289 289 288 288 288 288 288 288 288 288 288 288 288 288 288 288 288 289
287 287 287 287 287 288 288 288 288 288 288 288 288 288 288 288 287 287 287 287 287 287 286 286 286 285 285 286 287 287 287 286 285 284 284 284 284 284 284 284 284 284 284 285 286 286 286 286 286 286 286 286 286 287 287 287 288 288 288 288 288 288 289 289 289 289 289 289 289 288 288 288 288 288 288 288 287 287 287 287 287 287 287 288 288 288
287 287 287 288 288 288 288 288 288 288 288 288 288 288 288 288 288 288 287 287 287 287 286 286 286 286 285 286 286 287 287 286 285 284 284 284 284 284 284 284 283 283 283 283 284 284 285 285 286 285 285 285 285 286 286 287 287 287 287 288 288 288 288 288 288 288 288 288 288 288 288 288 288 288 288 288 288 287 287 287 287 287 287 287 288 288
288 288 288 288 288 288 288 288 288 288 288 288 288 288 288 288 288 288 287 287 286 286 286 286 286 286 285 285 285 285 286 287 286 284 284 284 283 283 283 283 283 283 283 282 281 282 283 284 285 285 284 284 284 285 285 286 286 286 287 287 287 287 287 287 287 288 288 288 288 288 288 288 288 288 288 288 288 288 288 288 287 287 287 287 288 288
288 288 288 288 288 288 288 288 288 288 288 288 288 288 288 288 288 287 287 287 286 286 286 286 286 286 286 285 285 285 286 286 286 284 284 283 283 282 282 282 282 282 282 281 280 280 281 282 284 285 284 283 283 283 284 285 285 286 286 286 287 287 287 287 287 287 287 288 288 288 288 288 288 288 288 288 288 288 288 288 288 287 287 287 287 287
288 288 288 288 288 288 288 288 288 288 288 288 288 288 288 288 287 287 287 287 287 286 286 286 286 286 286 286 286 286 287 286 285 284 283 283 282 282 282 282 282 282 282 281 280 280 280 281 282 283 282 283 283 283 283 284 285 285 285 286 286 287 287 287 287 287 287 287 288 288 288 288 288 288 288 288 288 288 288 288 288 287 287 286 286 286
288 288 288 288 288 288 288 288 288 288 288 288 288 288 288 288 287 287 287 287 287 287 287 287 286 286 286 286 287 287 287 286 285 284 283 282 282 282 282 282 282 281 281 281 281 281 281 281 281 281 281 282 283 283 283 284 284 285 285 285 285 286 286 286 286 286 287 287 287 287 287 288 288 288 288 288 288 288 288 288 288 287 286 286 285 285
288 288 288 288 288 288 288 288 288 288 288 288 288 288 288 288 288 288 287 287 287 287 287 287 287 286 286 286 286 287 287 286 285 284 283 283 282 282 282 282 281 281 281 281 281 281 281 281 281 281 281 282 282 283 283 283 283 284 284 285 285 285 286 286 286 286 286 286 286 287 287 287 287 287 287 287 287 287 287 287 287 287 286 286 285 285
288 288 288 289 289 289 289 289 289 289 289 289 288 288 288 288 288 288 288 288 287 287 287 287 287 286 286 286 286 286 286 286 286 285 284 283 282 281 282 282 281 281 281 281 281 281 281 281 281 281 281 281 282 283 283 283 283 284 284 284 285 285 285 285 285 285 285 285 286 286 286 286 286 286 286 286 286 286 286 287 287 287 287 286 286 285
288 288 289 289 289 289 289 289 289 289 289 289 289 289 289 289 288 288 288 288 288 288 287 287 287 286 286 286 286 286 286 286 286 285 284 283 282 281 282 282 282 281 281 281 281 281 281 281 281 281 281 282 282 282 283 283 283 283 284 284 284 284 285 285 285 284 284 285 285 285 285 285 285 285 285 285 285 286 286 286 287 287 287 286 286 286
289 289 289 289 289 289 289 289 289 289 289 289 289 289 289 289 289 288 288 288 288 288 288 288 288 287 287 286 286 286 286 286 286 285 285 284 282 282 282 282 282 282 282 282 281 281 281 281 281 281 281 282 282 282 282 282 283 283 283 283 284 284 284 285 285 284 284 284 284 284 284 284 284 284 285 285 285 285 285 286 286 286 286 286 286 286
289 289 289 289 289 289 289 289 289 289 289 289 289 289 289 289 289 288 288 288 288 288 288 288 288 288 288 287 287 287 286 286 286 286 285 284 283 283 282 282 282 282 282 282 282 281 281 281 281 281 281 282 282 282 282 282 282 283 283 283 284 284 285 285 284 284 284 284 284 284 284 284 284 284 284 284 284 284 284 285 285 286 286 285 286 286
288 289 289 289 289 289 289 289 289 289 289 289 289 289 289 289 289 289 289 288 288 288 289 289 289 289 288 288 288 287 287 287 286 286 285 285 284 283 283 283 283 283 282 282 282 282 282 282 282 282 282 282 282 282 282 282 283 283 282 282 283 284 285 285 284 284 284 284 284 284 284 284 284 284 283 283 283 283 284 284 285 285 285 285 285 285
288 288 288 289 289 289 289 289 289 289 289 289 289 289 289 289 289 289 289 289 289 289 289 289 289 289 289 289 288 288 287 287 287 286 286 285 284 284 283 283 283 283 283 282 282 282 282 282 282 282 282 282 282 282 282 282 283 283 283 282 283 283 284 284 284 284 284 284 284 284 284 284 284 283 283 283 283 283 283 284 284 284 285 284 284 284
288 288 288 289 289 289 289 289 289 289 289 289 289 289 289 289 289 289 289 290 289 289 289 290 290 290 290 290 289 288 288 287 287 286 286 285 285 284 284 283 283 283 283 283 283 283 283 282 282 282 282 282 282 282 282 283 283 283 283 283 283 283 283 284 284 284 284 284 284 284 284 284 283 283 283 283 283 283 284 284 284 284 284 284 284 284
288 288 288 288 289 289 289 289 289 289 289 289 289 289 289 289 289 289 289 289 289 289 289 289 289 289 290 290 290 289 288 288 287 286 286 285 285 284 284 284 283 283 283 283 283 283 283 283 283 283 283 283 282 282 282 283 283 283 283 283 283 283 283 284 284 284 284 284 284 284 284 284 283 283 283 283 283 283 284 284 284 284 284 284 284 284
288 288 288 288 289 289 289 289 289 289 289 289 289 289 289 289 288 288 288 288 288 288 288 288 288 288 288 288 288 289 288 288 287 287 286 285 285 284 284 284 284 283 283 283 283 283 283 283 283 283 283 283 283 283 282 283 283 283 283 283 283 283 283 283 284 284 284 284 284 284 284 284 283 283 283 283 283 283 284 284 284 284 285 284 284 284
288 288 288 288 289 289 289 289 289 289 289 289 289 288 288 288 288 288 287 287 287 287 287 286 286 286 286 286 287 287 287 287 287 287 286 286 285 285 284 284 284 284 283 283 283 283 283 284 284 284 284 283 283 283 283 283 283 283 284 284 283 283 283 283 283 284 284 284 284 284 284 284 283 283 283 283 283 284 284 284 284 285 285 285 284 284
288 288 288 289 288 289 289 289 289 288 288 288 288 288 288 288 288 287 287 286 286 286 286 285 285 285 284 285 285 285 286 286 286 286 286 286 285 285 285 284 284 284 284 284 284 284 284 284 284 284 283 283 283 283 283 283 283 283 284 284 283 283 283 283 284 284 284 284 284 284 284 284 283 283 283 283 283 283 284 284 284 285 285 285 285 285
288 289 289 288 288 288 288 288 288 288 288 288 288 288 287 287 287 287 286 286 286 285 285 285 284 284 284 284 284 284 284 285 285 286 285 285 285 285 285 284 284 284 284 284 284 284 284 284 284 283 283 283 283 283 284 284 283 283 283 283 283 283 283 283 284 284 284 284 284 284 284 284 284 284 284 283 283 283 284 284 285 285 285 285 285 285
288 288 288 288 288 288 288 288 288 288 288 288 288 287 287 287 286 286 286 285 285 285 285 285 285 285 285 284 284 284 284 284 284 285 285 285 285 285 284 284 284 284 284 284 284 284 284 284 284 284 283 283 283 283 284 284 284 283 283 283 283 283 283 283 284 284 284 284 284 284 284 284 284 284 284 284 284 284 284 285 285 285 285 285 285 285
288 288 288 288 288 288 288 288 288 288 288 288 288 288 287 286 286 285 285 285 285 285 285 285 285 285 284 284 284 284 284 284 284 284 284 284 285 285 284 284 284 284 284 284 284 284 284 284 284 284 283 283 283 283 283 284 283 283 283 283 283 283 283 283 284 284 284 284 284 284 284 284 284 284 284 284 284 284 284 284 285 285 285 285 285 285
287 287 287 287 288 288 288 288 288 288 288 288 288 288 287 287 286 286 285 285 285 285 285 285 285 284 284 284 285 284 284 285 285 285 285 285 285 285 285 285 284 284 284 284 284 284 283 283 283 284 284 284 284 283 283 283 283 283 283 283 283 283 283 283 284 284 284 284 284 284 284 284 284 284 284 284 284 284 284 284 284 284 285 285 285 285
286 286 287 287 288 288 288 288 288 288 288 288 288 288 287 287 287 286 285 285 285 284 285 285 285 284 284 285 285 285 285 285 285 285 285 285 285 285 285 284 284 284 284 284 284 283 283 283 283 284 284 285 284 284 283 283 283 283 283 283 283 283 284 284 284 284 284 284 284 284 284 284 284 284 284 284 284 284 284 284 284 284 284 284 284 284
Wind_Speed
22 22 22 23 23 24 26 27 28 29 30 31 32 32 33 34 34 34 35 35 35 35 35 34 33 32 31 30 29 28 28 28 27 27 26 25 24 24 23 23 23 23 23 23 23 23 23 23 23 24 25 25 25 25 25 25 25 25 25 24 24 24 23 23 23 23 23 23 23 23 23 24 25 25 25 25 25 25 25 25 25 25 25 25 25 24
21 22 22 23 24 25 27 28 29 29 30 31 31 32 33 33 33 34 34 35 34 34 32 31 30 29 27 27 26 25 25 25 25 25 24 24 23 23 23 23 23 23 23 22 23 23 23 23 24 24 25 25 26 25 25 25 25 25 24 24 24 24 24 24 24 23 23 23 23 23 24 24 24 24 24 24 24 24 24 25 25 24 24 24 24 23
21 22 23 24 24 25 27 28 29 30 30 31 31 32 32 32 33 33 33 33 32 31 30 28 27 26 24 24 23 23 23 23 23 23 23 22 22 22 22 22 22 22 22 22 23 23 23 23 24 25 25 25 25 25 25 25 24 24 24 24 24 24 24 24 24 24 24 24 24 24 24 24 23 23 23 24 24 24 25 25 24 24 24 23 23 23
22 23 23 24 25 25 26 27 29 30 30 31 31 32 32 32 32 32 32 31 29 28 27 25 24 23 22 21 21 21 21 22 22 22 22 22 22 22 22 22 22 23 22 23 23 23 23 24 24 25 25 25 25 25 24 24 24 24 24 24 24 24 24 24 24 23 23 24 24 24 24 24 23 23 23 24 25 25 25 25 24 24 24 23 23 23
23 23 24 24 24 25 27 28 28 29 30 30 30 30 30 30 29 29 29 28 26 25 24 22 21 21 20 20 20 20 21 21 21 21 21 22 22 22 22 22 22 23 23 23 23 23 24 24 25 25 25 25 24 24 24 24 23 23 24 24 24 24 24 24 23 23 23 24 24 25 24 24 24 24 24 25 25 25 25 25 25 25 24 24 24 23
23 24 24 24 24 25 27 28 29 29 29 29 29 28 28 27 27 26 26 25 24 22 21 20 19 18 18 19 19 20 20 20 21 21 21 21 22 22 22 22 22 22 23 23 23 23 24 24 24 24 24 24 24 23 23 23 23 23 23 23 24 24 23 23 23 23 24 24 24 25 25 24 24 24 25 25 26 26 26 26 26 25 25 25 25 24
24 24 24 24 25 26 26 27 28 28 27 27 26 26 25 25 25 24 23 22 22 21 20 18 17 17 17 18 19 20 20 20 21 21 21 21 21 21 21 22 22 22 22 22 23 23 23 23 23 23 23 23 22 22 22 22 22 23 23 23 23 23 23 23 23 23 23 24 25 25 25 25 25 25 25 25 26 26 26 26 26 26 26 26 26 25
23 24 24 24 24 25 25 25 25 25 25 24 24 23 23 23 23 22 21 21 20 19 18 17 16 15 16 17 19 20 21 21 21 20 20 20 20 20 21 21 21 21 21 21 21 22 22 22 22 22 22 21 21 21 21 21 22 22 22 22 22 22 22 22 22 23 23 24 24 25 25 25 25 25 25 25 26 26 26 27 27 27 27 27 26 26
21 22 23 23 23 22 22 23 23 23 23 22 22 22 22 22 22 21 20 19 19 18 18 17 16 16 15 17 19 20 21 21 21 20 20 20 20 20 20 20 20 20 20 20 20 20 21 21 21 21 20 20 20 20 20 20 20 20 20 20 20 20 21 21 22 22 23 24 24 24 24 24 25 25 25 25 26 26 27 27 27 27 27 27 27 27
20 20 21 22 22 21 20 20 21 21 21 21 21 21 21 21 21 21 19 18 18 18 18 18 18 17 17 18 19 20 21 21 21 20 19 19 19 19 19 19 19 19 19 19 19 19 20 20 20 20 19 19 19 19 19 19 19 19 19 19 19 20 20 21 21 22 23 23 24 24 24 25 25 25 25 26 26 26 27 27 27 27 27 27 27 27
19 19 19 19 20 20 19 19 19 19 19 18 19 19 19 19 19 20 20 20 19 19 19 19 19 19 20 20 20 21 21 21 21 20 18 18 18 18 19 19 19 19 18 18 18 18 19 19 19 19 18 18 18 18 18 18 18 18 18 19 19 20 21 21 21 22 22 23 23 24 24 25 25 25 25 26 26 26 27 27 27 27 28 28 28 27
18 18 17 17 17 17 17 17 18 17 17 16 16 17 17 17 18 19 20 21 21 21 21 21 20 20 20 22 22 22 22 22 22 21 19 18 18 18 19 19 18 18 18 18 17 17 17 18 18 18 18 18 18 18 18 18 18 18 18 19 20 20 21 21 21 22 22 22 23 23 24 24 25 25 26 26 26 27 27 27 27 27 28 28 28 28
16 15 15 15 15 15 15 15 15 15 15 15 15 15 17 18 18 19 21 21 22 22 23 23 22 21 20 21 23 23 23 23 23 22 21 20 19 19 19 19 19 18 17 17 16 16 16 17 17 17 16 17 17 17 17 17 18 18 19 20 20 21 21 21 22 22 22 22 22 23 23 24 24 25 25 26 27 27 27 28 28 28 28 28 28 29
13 12 12 12 13 13 14 13 14 14 14 14 15 16 17 18 19 20 21 22 22 23 23 24 23 22 21 21 22 23 24 25 25 24 23 21 20 20 20 21 20 18 17 17 16 15 15 16 16 16 15 16 16 17 17 17 18 19 19 20 21 21 21 21 21 21 22 22 22 22 23 23 24 25 25 26 27 28 28 29 29 29 29 29 30 30
11 10 10 10 11 12 12 12 12 13 14 15 16 17 17 18 19 20 21 23 23 24 24 24 24 23 22 21 21 22 24 26 26 26 25 22 20 20 21 22 21 19 17 17 16 15 14 15 15 15 15 15 15 16 17 18 19 19 20 20 21 21 21 21 21 21 21 22 22 22 23 24 24 25 26 27 28 28 29 30 30 31 31 31 31 31
10 9 9 10 10 11 11 12 12 13 14 15 16 17 18 18 19 20 21 23 24 25 25 25 26 25 23 20 20 22 25 27 28 28 27 24 22 20 21 22 22 20 18 17 16 16 15 15 15 15 15 15 16 16 17 18 19 19 20 20 21 21 21 21 21 21 21 21 22 23 24 24 25 26 27 28 28 29 30 31 32 32 32 32 32 32
9 8 8 9 9 10 11 12 13 14 15 15 16 17 18 19 20 21 22 23 24 25 25 26 27 27 26 23 21 22 25 28 30 30 29 27 24 22 22 23 23 22 19 18 17 17 17 16 16 16 16 16 16 17 17 18 19 19 20 20 20 20 20 20 20 20 21 22 23 24 25 25 26 27 28 28 29 30 31 31 32 32 33 32 32 32
8 8 8 8 9 10 11 12 13 14 15 16 16 17 18 19 20 21 21 22 23 24 25 25 26 26 27 28 25 23 25 28 30 31 30 29 26 24 23 23 23 23 21 20 19 19 19 18 18 17 17 17 17 18 18 18 19 19 19 19 18 18 18 19 20 21 22 23 24 25 25 26 27 27 28 29 29 30 31 31 31 32 32 32 32 32
8 8 8 8 9 10 11 12 14 15 16 16 17 18 19 19 20 20 21 22 23 24 24 25 25 26 27 28 26 25 25 27 29 31 31 31 28 26 24 24 25 24 23 22 22 21 21 20 20 19 19 19 18 18 18 18 18 18 17 17 17 17 18 19 20 21 23 24 24 25 26 27 27 27 28 28 29 29 29 30 30 31 31 32 32 32
8 8 8 9 10 10 11 12 14 15 17 18 18 19 19 20 20 21 21 22 23 23 24 24 25 26 26 27 27 26 25 27 29 30 31 31 30 27 26 26 26 26 25 24 24 24 24 23 22 21 21 20 20 19 18 18 17 16 16 16 16 17 18 20 21 22 23 24 24 25 25 26 26 27 27 27 28 28 29 29 30 30 31 31 32 33
8 8 9 9 10 11 11 12 14 16 17 18 19 19 20 20 21 21 22 22 23 24 24 24 25 25 26 27 26 26 25 26 28 29 31 31 30 28 27 27 28 28 28 27 26 26 26 25 24 23 23 22 21 20 19 17 16 15 15 15 16 18 19 21 22 22 23 23 24 24 25 25 26 26 27 27 27 28 28 29 29 30 31 32 32 33
8 9 9 10 11 12 12 13 14 15 17 18 19 19 20 20 21 21 22 22 23 23 24 24 25 25 25 26 26 25 25 25 26 28 30 31 31 29 27 28 29 30 30 30 29 28 28 27 26 25 24 23 22 20 19 17 16 15 15 16 18 19 20 21 22 22 22 23 23 24 24 25 25 26 27 27 27 28 28 29 30 30 31 32 33 34
8 9 10 11 11 12 13 14 15 15 16 18 19 19 19 20 20 21 22 22 23 23 24 24 25 25 25 25 25 24 23 24 25 27 29 30 31 30 29 29 30 31 32 32 31 31 30 29 28 27 26 24 23 21 19 17 16 16 17 18 19 20 21 21 21 21 21 22 22 23 23 24 25 25 26 27 27 28 29 29 30 31 31 32 33 34
8 9 10 11 12 13 14 15 15 16 16 17 18 19 19 20 20 21 21 22 23 23 24 25 25 25 25 24 24 23 23 23 25 26 27 29 30 31 31 31 32 33 34 33 33 33 33 32 30 29 27 25 24 22 20 19 19 19 19 20 20 21 21 21 21 21 21 21 21 22 22 23 23 24 25 26 27 27 28 29 29 30 31 32 33 34
9 10 11 12 13 14 14 15 15 16 16 17 18 18 19 19 20 20 21 22 22 23 24 24 25 25 25 24 24 24 23 24 24 25 26 28 30 31 31 32 33 34 36 35 35 35 35 34 32 30 28 26 25 24 24 23 23 23 23 22 22 21 21 20 20 20 20 21 21 21 22 22 22 23 24 24 25 26 27 28 28 29 30 31 32 33
10 10 11 12 13 13 14 14 15 15 16 16 17 18 18 19 19 20 20 21 22 22 23 24 25 25 25 25 25 25 24 24 24 25 25 27 30 32 32 33 33 34 37 37 37 36 36 35 34 31 29 28 27 27 27 27 27 27 25 24 23 21 21 20 20 20 20 21 21 21 21 21 22 22 22 23 24 24 25 26 27 27 28 30 31 33
10 11 12 12 13 13 14 14 14 14 15 16 17 18 18 19 19 19 20 21 21 22 22 23 24 25 25 26 26 26 25 24 24 24 26 27 30 31 32 33 33 34 37 38 38 37 36 36 34 32 30 29 29 29 30 30 30 29 28 26 24 22 21 20 20 20 21 21 21 21 21 21 21 21 22 22 22 23 23 24 25 26 27 28 30 32
11 11 12 12 13 13 13 13 14 14 14 15 16 17 18 18 18 19 19 20 20 21 21 22 23 24 25 26 27 26 26 24 23 24 26 27 29 30 31 32 33 34 36 38 38 37 36 34 33 31 30 31 31 32 32 32 31 30 29 27 25 24 23 22 21 21 21 21 22 22 22 21 21 21 21 21 21 21 22 22 23 24 26 28 29 31
11 12 12 12 13 13 13 13 13 14 14 15 16 16 17 17 17 18 18 19 19 19 20 21 22 23 25 26 27 27 26 23 23 24 26 27 28 30 31 31 32 33 35 38 39 38 35 32 31 30 30 32 33 34 34 33 32 31 30 29 28 27 26 25 24 23 23 23 22 22 22 22 22 21 21 21 21 21 21 21 22 24 25 27 29 30
11 11 11 12 12 12 13 13 13 14 14 15 15 15 16 16 16 16 17 17 18 18 19 20 21 23 24 26 27 27 26 23 23 24 25 27 28 29 30 30 31 31 33 35 37 37 35 33 30 29 31 33 35 35 35 35 34 33 32 32 31 30 29 28 27 26 25 24 23 23 22 22 22 22 22 21 21 21 21 21 22 23 25 27 29 30
10 11 11 11 12 12 12 13 13 14 14 14 14 15 15 15 15 15 16 16 17 17 18 19 20 21 23 24 25 26 26 24 23 22 24 25 27 29 30 30 30 30 30 31 32 33 35 35 34 32 33 34 36 36 36 35 35 34 34 33 33 32 31 31 30 29 27 25 24 23 22 22 22 22 22 22 22 22 22 22 22 24 26 27 29 30
10 10 11 11 12 12 12 13 13 13 13 13 14 14 14 14 14 14 15 15 16 17 18 19 20 21 21 22 23 24 26 24 23 22 23 24 26 28 28 29 30 30 28 28 28 28 30 35 38 38 37 36 36 36 36 36 35 35 35 34 34 33 32 31 31 30 28 27 25 23 22 22 21 21 21 21 21 22 22 22 22 24 26 27 29 30
10 11 11 11 12 12 12 12 12 12 12 12 12 13 13 13 13 14 14 15 15 16 17 18 19 20 21 22 23 23 24 23 22 21 22 23 25 26 27 28 29 30 29 28 27 27 29 34 38 40 39 38 36 36 36 36 35 35 35 35 35 34 33 32 31 30 29 28 27 25 24 22 22 21 21 21 21 21 21 21 22 23 25 27 29 31
11 11 12 12 12 12 12 12 11 11 11 11 11 12 12 12 12 13 13 14 15 16 16 17 18 19 20 22 22 22 22 21 20 19 20 21 23 25 27 27 28 29 30 30 29 29 32 34 36 37 39 39 38 36 35 34 35 35 35 35 35 35 34 33 32 32 31 30 29 28 27 25 24 23 22 22 22 21 21 21 22 22 24 26 28 30
11 12 12 12 12 12 11 11 11 10 11 11 11 11 11 12 12 12 13 13 14 15 16 16 17 18 19 21 22 22 21 20 18 17 18 19 21 24 26 27 27 28 29 30 31 31 33 34 34 35 37 39 39 37 34 34 34 35 36 36 35 35 35 34 33 33 33 32 32 31 30 29 28 27 26 25 24 24 23 23 23 23 24 25 26 28
12 12 12 12 12 11 11 11 10 10 10 10 11 11 12 12 12 12 12 13 14 14 15 15 16 17 17 19 20 21 21 19 18 17 17 18 20 22 25 26 26 26 28 29 30 31 33 34 35 35 35 36 37 38 36 36 35 36 36 36 36 35 34 34 34 34 34 34 34 33 33 32 31 31 30 29 28 27 26 25 25 25 25 26 26 27
12 12 12 12 12 11 11 11 11 10 10 10 11 11 11 11 12 12 12 12 13 13 14 14 14 15 15 16 17 18 19 18 17 16 16 17 18 20 23 24 25 25 26 28 30 31 32 35 37 37 35 34 34 36 38 39 39 38 38 37 36 35 34 34 34 34 34 35 35 35 34 34 34 33 33 32 31 30 29 28 28 28 28 28 28 29
13 13 12 12 12 11 11 11 10 10 10 10 11 11 11 11 12 12 12 12 12 13 13 13 13 13 13 14 15 16 16 16 16 16 17 17 18 19 21 24 24 24 25 26 28 30 32 34 36 37 37 36 36 36 37 39 40 40 40 38 36 35 34 34 34 34 34 35 35 35 35 35 35 35 35 35 34 34 33 32 31 31 31 31 31 30
12 12 12 12 12 11 11 10 10 10 10 11 11 12 12 12 12 11 11 11 12 12 13 13 13 13 13 13 14 15 15 15 16 16 17 18 18 19 21 23 25 25 25 26 27 29 31 32 34 36 37 39 39 40 39 39 39 39 40 40 38 36 35 35 35 35 35 35 35 36 36 36 36 36 36 36 36 36 36 35 34 33 33 33 32 32
12 12 12 11 11 11 10 10 10 10 11 11 12 12 12 11 11 11 11 11 11 12 12 13 13 12 13 13 14 15 15 16 16 17 18 19 19 20 21 23 25 26 26 27 27 28 30 32 34 35 36 38 40 41 41 41 40 39 39 39 40 40 38 36 36 35 35 35 35 36 36 36 36 36 36 36 36 36 36 36 36 35 34 33 34 34
11 11 10 10 10 10 9 10 10 10 11 11 11 11 12 12 11 11 11 11 11 12 12 13 13 13 13 14 15 15 16 17 18 19 19 20 20 21 22 23 24 25 27 28 28 29 30 32 34 35 36 37 38 39 40 41 39 38 38 38 40 40 40 38 37 35 35 35 36 36 37 37 37 37 36 37 37 37 36 36 36 36 34 33 33 34
10 10 9 9 9 8 9 9 10 10 11 11 11 11 12 12 13 13 13 13 13 13 14 15 15 15 15 16 16 17 17 18 19 20 21 21 22 22 23 23 24 25 27 28 30 31 31 32 33 35 36 37 37 39 41 42 41 38 37 37 39 40 41 40 37 35 35 36 37 36 37 37 37 37 37 37 38 38 37 37 36 36 35 34 34 34
9 8 8 8 8 8 8 9 9 10 10 10 11 11 12 13 13 14 14 14 15 15 16 16 17 18 19 19 19 19 20 20 21 22 22 23 23 24 24 24 25 25 27 28 30 32 32 33 33 34 35 36 37 39 40 41 41 40 37 37 37 38 39 39 39 37 37 37 38 37 37 37 37 38 38 38 38 38 38 38 36 35 35 34 35 35
8 7 7 7 7 8 8 9 9 10 11 11 11 11 12 13 13 14 14 15 16 16 17 18 19 20 21 23 23 24 23 23 23 24 24 24 24 25 25 26 26 26 27 28 30 32 33 34 35 35 35 36 37 38 39 40 40 40 38 37 36 36 37 39 40 40 39 39 39 38 38 38 38 39 40 40 40 40 39 38 37 36 36 35 35 36
7 6 6 6 7 8 8 9 10 11 11 12 12 12 12 13 14 14 15 16 16 17 18 19 21 23 24 26 26 27 27 27 26 26 26 26 26 26 26 27 27 28 28 28 30 31 33 35 36 36 36 36 37 37 38 39 39 40 39 38 37 37 37 39 40 40 39 41 41 41 40 40 40 41 41 42 42 41 40 38 38 38 37 36 36 36
6 5 6 7 8 9 10 11 12 12 12 13 13 13 13 14 14 14 15 16 17 18 19 20 22 24 25 27 28 28 29 30 30 29 29 29 28 28 28 28 28 29 29 29 30 31 32 34 35 36 36 37 37 38 38 37 37 38 39 38 38 38 38 39 39 40 40 41 41 42 41 41 41 41 41 41 41 40 40 38 38 38 38 37 36 36
6 6 7 8 9 10 11 12 13 13 14 14 15 15 15 15 15 15 15 16 17 18 19 21 22 24 25 26 27 28 29 31 32 32 32 32 31 31 31 30 30 30 30 31 31 32 32 33 33 34 35 36 37 37 37 36 35 36 37 38 38 39 40 40 40 40 40 40 40 41 42 41 41 41 41 41 40 40 40 39 39 38 38 38 37 37
6 7 7 8 9 11 12 13 14 15 15 16 17 17 17 17 16 16 16 16 17 18 20 22 24 25 26 26 27 27 29 30 32 33 33 33 33 33 32 32 32 32 32 32 32 32 32 32 32 32 32 32 34 35 36 35 35 35 36 37 38 38 39 40 40 41 41 40 40 41 41 40 40 40 41 41 41 41 41 40 40 40 39 38 38 38
6 7 8 9 11 12 13 14 15 16 17 18 18 19 19 18 17 17 17 17 17 19 21 23 24 25 27 27 28 28 29 30 31 32 33 33 33 34 33 33 33 33 33 33 33 32 32 32 32 30 29 28 29 32 34 35 35 35 35 36 36 38 39 40 40 40 40 40 40 40 40 39 39 39 39 40 40 41 41 41 41 41 40 39 39 39
7 8 9 10 11 13 14 15 16 17 18 19 20 20 21 20 19 18 18 17 18 19 21 22 24 26 27 28 29 29 30 31 32 32 33 33 33 33 33 34 34 34 34 34 33 32 32 31 31 29 27 25 25 27 30 32 34 34 34 35 35 36 37 39 39 39 39 40 40 40 39 39 39 38 37 38 39 41 42 42 42 42 42 41 40 40
7 8 9 10 11 12 13 14 15 17 18 19 20 21 21 22 22 21 20 19 19 20 21 22 24 26 27 28 29 30 30 30 32 32 33 33 32 33 33 33 34 34 34 35 34 33 32 31 31 29 28 25 23 23 25 28 31 33 34 34 35 35 36 37 38 39 39 39 38 38 38 38 38 37 37 37 38 40 41 42 42 42 42 41 41 41
Wind_Direction
242 247 252 257 260 263 265 268 270 271 273 276 278 280 282 283 285 286 287 289 290 291 293 294 296 297 298 297 297 296 294 294 294 294 295 296 297 298 299 298 298 298 298 297 296 295 294 293 293 292 291 290 290 290 290 291 291 291 292 292 292 293 293 294 294 294 295 295 295 296 296 296 297 299 302 304 306 308 308 308 307 307 307 308 309 310
244 249 253 257 261 263 265 269 271 272 273 275 277 279 280 282 283 285 286 288 290 292 293 295 297 297 298 297 296 294 293 293 294 295 296 297 298 298 298 298 298 298 297 296 295 295 294 293 292 291 291 291 290 291 291 291 291 291 292 292 292 293 293 294 294 295 295 296 296 296 296 297 299 301 303 305 306 305 304 304 304 304 304 305 305 306
248 250 253 257 261 263 265 269 271 273 274 275 277 278 279 281 282 284 285 288 290 293 295 297 298 298 297 296 294 293 293 293 294 295 296 297 297 297 298 297 297 297 296 295 295 293 293 292 291 291 291 291 291 291 291 291 292 292 292 292 292 293 294 295 295 296 297 297 297 297 297 298 299 301 302 302 301 301 301 301 301 301 301 301 301 301
251 252 255 259 262 264 266 268 271 273 275 276 277 278 280 281 283 285 287 289 292 295 297 298 299 298 297 295 294 293 293 293 294 295 296 296 297 297 297 297 297 296 295 294 293 292 291 291 290 290 290 290 291 291 291 291 291 291 292 292 293 293 294 295 296 296 296 296 296 296 296 297 297 298 298 298 298 298 298 299 299 299 298 298 297 298
255 256 258 262 264 266 268 269 271 273 275 276 278 280 282 284 285 288 290 293 295 297 298 298 298 297 296 295 294 293 293 294 295 295 296 296 296 296 296 296 295 295 294 293 292 291 290 290 290 289 289 290 290 290 290 290 291 291 291 292 293 293 294 295 295 295 294 294 293 294 294 294 295 295 295 295 296 296 297 297 297 297 296 296 296 295
258 260 262 265 266 267 269 271 272 274 277 279 281 284 286 287 289 291 293 295 297 297 297 297 297 297 296 296 295 294 294 294 294 295 295 295 295 296 295 295 294 293 292 291 290 289 289 288 288 288 289 289 289 289 290 290 290 290 291 292 293 294 294 294 294 293 292 292 292 292 293 293 294 294 294 294 295 295 296 296 296 296 296 296 295 295
260 263 266 267 268 269 271 274 276 279 281 283 285 287 288 290 292 293 294 295 296 296 296 296 296 296 297 296 295 294 293 293 294 294 294 294 295 294 294 293 292 291 290 289 289 288 288 288 288 288 288 288 288 289 289 290 290 291 292 293 293 294 293 293 292 291 291 290 291 291 292 293 293 294 294 294 294 294 295 295 295 295 296 295 295 295
262 266 268 269 271 273 276 278 281 283 285 286 287 288 290 291 292 293 295 295 296 296 296 296 296 296 296 295 294 293 293 293 294 294 295 294 294 294 293 292 291 290 289 289 288 288 288 288 288 288 288 288 289 289 289 290 290 291 292 293 293 292 292 290 290 289 289 289 290 291 292 292 293 293 293 293 293 293 293 293 294 294 294 294 294 294
264 268 271 273 275 278 281 282 283 284 286 287 288 289 290 291 292 293 294 295 297 298 298 298 297 296 295 294 294 294 295 295 296 297 297 297 296 295 293 292 291 290 290 290 290 290 290 289 289 288 289 289 289 289 289 290 291 292 292 292 291 290 289 288 288 288 288 289 290 291 292 292 292 292 292 291 291 291 291 292 292 292 293 293 293 294
269 272 275 277 279 280 281 280 281 283 286 288 290 291 292 292 294 294 295 295 297 299 300 301 301 301 299 297 296 296 298 299 300 301 301 301 300 299 296 295 294 294 294 294 293 293 292 291 290 289 289 289 289 289 289 290 290 290 290 289 288 287 287 287 287 287 288 289 290 291 292 291 291 290 290 289 289 289 289 290 290 291 291 292 292 293
277 277 278 279 280 281 280 279 280 282 285 288 291 294 295 295 297 298 299 299 299 301 302 304 306 307 307 305 303 301 301 301 302 302 302 302 302 301 299 297 297 297 297 297 296 295 293 291 290 290 289 289 288 288 288 288 288 287 287 286 286 286 286 286 287 287 288 289 290 291 291 291 291 290 290 289 289 288 288 289 289 290 290 291 291 292
278 278 276 275 276 278 280 280 281 283 285 287 290 292 293 296 300 303 304 305 306 306 306 307 309 311 312 311 309 308 306 305 305 305 305 305 304 302 300 299 299 299 299 298 297 295 293 291 289 289 288 288 287 286 286 286 285 285 285 285 286 286 286 286 287 287 287 288 288 289 289 289 290 290 289 289 289 289 288 288 289 289 289 289 290 290
275 273 272 272 272 273 275 278 282 285 287 288 289 291 294 299 304 307 307 309 310 310 310 310 312 313 314 313 312 312 311 310 309 309 309 310 309 307 304 302 302 302 301 300 298 295 292 290 288 287 287 286 285 284 284 284 284 285 285 285 286 286 286 286 286 286 286 286 286 286 286 287 287 288 288 288 288 288 288 288 287 287 287 287 287 287
269 269 269 270 271 272 274 278 283 287 290 292 295 297 300 305 307 309 309 309 310 311 312 312 312 314 315 315 315 315 315 314 313 312 312 313 315 313 310 308 308 308 306 304 301 297 294 290 288 287 286 284 284 284 284 284 285 285 286 286 286 285 285 285 285 285 285 285 285 285 285 285 285 286 286 286 286 286 286 286 286 285 285 285 285 285
264 267 269 270 273 276 280 284 287 290 293 297 300 303 305 307 308 309 309 309 310 311 312 312 312 314 316 318 320 320 318 317 316 315 314 316 318 318 315 312 312 312 311 308 305 302 299 295 293 292 290 288 287 288 288 288 288 288 287 287 286 285 284 284 283 283 284 284 284 285 285 285 285 285 285 285 285 285 285 285 285 285 285 285 285 286
264 268 270 273 278 282 286 291 293 295 298 300 303 305 307 307 308 309 309 310 311 312 313 313 314 315 318 321 324 324 323 321 319 318 317 318 321 322 319 316 316 316 316 314 312 310 307 303 301 299 298 297 296 295 294 294 292 291 290 288 287 285 284 284 284 284 284 285 285 285 285 285 285 285 284 284 284 284 284 284 285 285 286 287 287 288
269 272 275 279 283 288 293 296 297 298 300 302 304 306 306 307 309 310 310 311 312 313 315 316 318 320 321 324 327 328 326 323 321 320 319 319 322 325 323 321 320 321 320 319 318 316 314 312 309 308 306 305 304 303 301 299 297 295 293 290 288 287 286 286 286 286 287 286 286 286 286 285 285 285 284 284 284 284 284 285 286 287 288 289 290 290
274 279 283 285 288 292 296 298 299 300 301 302 304 306 307 308 309 310 310 311 313 315 317 319 321 322 323 326 330 332 330 325 323 322 321 321 323 327 327 325 323 323 323 322 322 320 318 316 315 314 313 312 310 309 306 304 302 299 296 293 291 290 290 290 290 290 290 289 289 288 287 286 285 285 285 284 285 285 286 286 287 288 289 290 290 290
280 285 288 290 293 296 299 299 301 302 303 304 306 307 308 309 310 310 311 312 314 316 319 321 322 323 324 325 329 332 332 327 324 323 322 322 325 328 330 328 326 324 324 323 323 321 319 318 317 317 316 316 315 313 311 309 307 303 300 297 295 295 295 295 295 295 293 292 291 290 289 288 287 286 286 285 285 286 286 286 287 287 288 288 288 289
286 289 292 296 299 301 302 303 304 306 306 308 309 309 309 310 311 312 313 315 316 318 320 321 322 323 324 325 329 333 332 328 325 324 323 324 326 330 331 329 327 325 323 324 323 322 321 320 320 320 320 320 319 318 316 314 311 308 304 301 299 299 299 299 298 297 295 294 292 291 290 289 288 288 287 286 286 285 285 285 286 286 286 287 287 287
291 295 299 304 306 306 307 308 309 310 310 310 310 311 311 312 313 314 316 317 318 319 321 320 320 321 323 325 328 332 332 330 327 326 325 324 326 329 331 329 327 324 323 324 324 324 323 323 324 324 324 323 322 321 320 318 315 311 307 304 302 302 301 300 299 298 296 295 294 293 292 291 291 290 289 288 287 286 286 285 285 285 285 285 285 285
297 303 310 314 313 311 312 314 312 311 310 311 312 313 313 315 316 317 317 318 318 318 318 318 319 321 324 325 328 331 332 331 329 328 327 325 325 328 330 329 327 325 324 325 325 325 325 326 326 327 327 326 325 325 323 322 318 314 310 307 305 304 303 302 301 299 298 297 296 295 294 293 292 291 291 289 288 287 287 286 285 285 285 284 284 284
305 310 315 315 315 314 313 313 312 311 311 312 313 315 316 316 316 317 317 318 318 317 317 318 321 323 324 325 327 330 333 332 331 330 328 324 324 327 329 329 327 325 324 325 326 326 326 326 328 329 329 329 328 327 326 325 321 318 314 312 310 308 307 305 303 301 300 298 297 296 294 293 292 291 291 289 289 288 287 286 286 285 285 284 284 284
309 311 313 313 313 313 313 313 313 313 313 314 315 316 316 317 316 317 317 317 318 319 320 321 321 321 322 324 327 330 334 334 333 331 328 325 325 327 329 329 327 325 325 325 326 326 326 327 328 330 331 331 330 329 328 327 325 322 320 318 316 314 311 309 307 304 302 300 298 296 294 292 291 290 289 288 287 287 286 286 285 285 285 284 284 283
310 311 311 312 312 312 313 313 314 315 316 316 316 316 316 316 316 316 317 317 317 318 319 318 318 319 323 326 329 333 335 335 334 332 330 327 325 326 328 328 327 325 325 325 326 326 326 327 329 331 331 331 330 330 329 328 327 326 325 323 321 319 316 312 309 307 304 301 299 297 294 292 290 289 287 286 286 285 285 285 285 284 284 283 283 282
310 310 311 311 311 311 312 313 315 315 316 315 314 313 313 313 314 314 314 314 315 316 316 317 318 321 325 328 331 333 335 336 336 335 333 328 325 325 326 327 327 325 325 325 326 326 327 328 329 330 331 330 330 329 329 329 328 328 328 327 325 322 319 315 312 309 306 304 302 299 297 294 292 290 288 287 286 285 285 285 284 284 284 283 282 281
309 309 309 309 309 309 310 311 312 313 313 313 312 312 312 312 313 314 313 313 315 316 318 319 320 323 325 328 330 333 336 338 338 336 333 329 324 323 324 326 326 326 325 326 326 326 327 328 329 330 330 329 329 328 328 328 329 329 329 328 327 324 321 318 315 312 310 308 306 303 301 299 296 294 292 290 289 287 287 286 286 285 284 283 282 281
307 307 307 307 308 308 309 310 311 312 312 312 312 312 313 314 313 312 312 315 317 318 319 320 321 323 325 326 329 332 337 340 339 336 333 328 323 321 324 326 327 327 327 327 326 326 326 327 328 329 329 328 327 327 327 328 328 329 330 329 328 327 325 322 320 317 314 312 310 308 305 303 301 299 297 295 293 292 290 289 288 287 285 284 284 283
304 304 306 307 308 309 310 311 313 313 313 313 313 313 315 314 313 312 313 317 319 320 320 321 322 323 324 326 329 333 338 341 339 335 331 327 323 323 325 326 328 329 329 328 327 326 325 326 327 327 326 325 324 325 326 328 330 331 332 332 331 330 329 327 325 322 319 316 314 311 308 307 305 303 302 300 299 297 295 294 293 292 289 287 286 285
301 303 306 308 309 311 313 314 315 315 315 315 315 315 316 316 315 315 318 321 322 321 321 322 323 324 326 327 329 332 336 340 340 336 331 328 326 325 326 328 329 331 332 331 329 326 324 324 324 324 323 322 323 324 327 329 332 334 334 334 333 333 332 330 328 326 323 320 317 314 311 309 307 306 305 304 303 301 300 299 299 297 295 292 290 289
302 305 309 311 314 316 317 318 318 318 317 317 317 317 317 317 318 318 320 323 323 323 323 323 324 325 326 328 328 328 331 339 341 337 332 331 328 327 328 329 330 332 334 332 328 324 321 321 321 321 321 321 323 325 327 330 333 335 335 335 334 333 333 332 330 328 326 324 321 318 315 313 310 309 307 306 305 303 302 302 302 301 300 298 297 295
308 312 315 318 320 320 321 320 320 319 318 318 318 318 318 318 320 321 322 323 324 324 324 324 325 325 326 327 327 328 331 340 343 339 335 332 329 327 328 329 330 331 333 331 326 320 315 315 318 320 321 322 323 325 327 329 332 334 334 334 333 333 333 332 331 329 328 327 325 323 321 318 315 312 310 308 306 304 303 302 303 304 303 303 303 301
317 320 322 323 324 324 323 321 320 319 318 318 317 318 318 319 321 322 324 324 324 324 324 325 326 326 327 328 328 330 335 342 344 340 336 333 329 328 328 329 329 330 331 330 325 318 313 312 315 318 320 321 322 323 325 328 330 332 333 332 331 331 333 333 332 331 330 330 329 328 327 324 321 318 315 312 309 307 305 303 304 305 306 307 306 305
326 327 327 326 325 324 322 321 319 318 318 317 317 317 319 321 322 324 324 325 325 325 325 325 327 329 330 330 331 333 338 344 344 341 336 334 331 329 329 329 329 329 329 327 325 321 317 315 315 316 318 320 321 321 322 325 328 330 331 331 330 330 332 333 332 331 331 331 330 330 330 329 327 324 321 319 316 313 310 307 307 307 308 308 307 307
329 328 327 326 325 323 321 319 318 317 317 317 318 319 321 323 325 325 326 326 326 325 326 327 329 332 333 333 333 335 339 343 344 342 338 337 334 331 329 329 329 328 327 326 324 321 318 317 316 315 315 317 318 320 321 323 326 328 329 330 329 330 331 333 332 331 330 330 330 330 331 331 330 328 327 325 323 320 317 313 311 309 308 308 308 308
327 326 325 325 325 324 323 321 319 318 319 320 321 322 324 326 327 328 329 328 328 328 327 328 329 332 334 334 335 336 339 342 343 344 343 341 337 332 328 328 329 329 327 325 323 321 317 316 316 315 315 314 315 318 321 324 325 326 327 328 329 330 332 333 332 330 329 328 328 329 330 330 330 330 329 329 328 325 322 318 315 312 311 311 311 310
325 324 325 326 327 327 326 325 323 322 323 324 324 326 328 329 331 331 331 330 330 329 329 329 331 333 335 336 337 338 341 343 346 348 348 347 341 334 329 328 331 332 328 325 324 321 318 316 316 316 315 312 312 315 319 323 325 325 325 326 327 328 330 332 331 329 327 326 326 327 329 329 329 329 329 330 330 328 324 321 320 318 317 316 316 314
325 326 327 328 329 330 330 330 329 328 328 328 328 330 331 332 333 334 333 332 330 329 328 327 329 333 337 341 342 343 344 347 350 351 351 352 347 339 333 330 332 333 331 328 325 322 318 315 313 313 313 313 313 314 316 319 321 322 324 325 326 326 327 329 330 328 327 326 326 327 327 328 328 328 328 329 329 328 325 324 323 323 322 320 318 316
326 328 329 331 333 334 334 335 334 333 334 333 333 333 334 335 334 334 332 331 328 326 325 325 327 331 338 344 347 348 350 352 353 354 354 354 350 344 337 333 332 333 333 330 326 322 317 313 310 309 310 311 313 315 317 318 318 319 322 324 324 325 327 328 328 328 327 326 326 326 326 326 326 326 326 327 327 325 324 323 323 323 322 320 318 316
329 331 333 336 337 338 338 337 337 337 338 337 336 335 335 335 333 331 329 327 325 323 321 322 324 330 339 347 351 354 355 356 357 357 356 356 353 348 342 336 334 333 332 329 325 321 317 313 311 310 310 310 311 313 315 316 317 318 319 319 319 322 326 327 327 328 328 327 325 324 324 324 324 324 323 323 323 322 321 321 322 322 321 319 317 316
331 334 338 340 341 342 342 342 341 341 341 340 339 337 334 331 329 327 325 323 323 322 321 322 325 331 339 349 355 358 359 360 360 359 358 356 354 351 345 339 336 334 332 328 325 322 319 315 312 312 312 312 311 311 312 313 315 317 316 315 316 319 323 325 326 326 326 325 324 323 323 322 322 322 322 321 321 321 321 320 319 319 320 318 316 314
335 339 343 345 345 346 346 344 344 343 343 342 339 334 331 329 327 324 322 323 325 327 328 331 333 337 342 348 354 359 2 3 2 0 359 357 354 351 346 342 338 336 333 328 325 323 321 318 314 312 312 313 312 311 311 313 316 317 315 314 316 319 321 323 325 325 324 323 323 324 322 321 320 320 320 319 320 320 322 321 319 317 316 315 315 313
340 344 346 347 348 347 346 344 344 342 342 339 335 332 331 331 330 328 327 328 330 333 336 339 340 341 344 348 352 356 0 2 2 0 358 356 354 351 347 344 341 338 334 329 325 322 322 320 316 314 315 315 313 310 309 311 314 316 315 316 316 315 314 318 323 325 324 323 323 323 322 321 320 320 320 319 319 319 320 320 318 317 315 314 313 312
341 344 347 349 349 346 344 341 339 338 336 333 331 331 333 333 334 333 333 334 336 340 343 345 346 346 347 350 352 353 356 359 360 360 358 356 353 351 348 344 342 340 336 330 325 323 322 320 318 318 318 317 313 310 309 310 312 314 315 317 317 313 310 315 320 323 323 323 323 323 323 323 321 320 319 318 318 319 319 318 318 318 316 315 314 312
337 344 350 350 347 343 340 338 338 337 336 334 333 333 335 336 338 339 340 340 342 346 349 350 350 349 348 350 351 351 351 354 356 357 356 355 353 351 348 345 343 340 336 331 328 324 322 319 319 321 322 318 314 310 308 309 311 313 316 318 318 316 314 316 319 321 320 322 323 324 324 324 322 319 317 316 317 317 317 316 316 316 316 315 314 312
337 345 348 348 346 344 343 343 342 342 342 341 340 338 339 340 342 344 346 347 348 350 352 353 352 350 347 347 348 347 347 348 351 353 353 353 353 351 349 346 344 340 336 332 329 327 323 321 320 321 320 317 313 311 309 310 310 312 315 317 318 317 316 317 319 320 321 321 322 323 325 324 321 317 314 314 314 315 315 315 315 315 315 314 312 311
338 344 348 349 350 349 349 349 350 351 352 352 351 350 348 347 347 349 351 352 352 352 353 354 352 349 346 345 345 344 343 343 345 347 349 350 350 349 348 346 343 340 336 332 329 327 324 323 322 320 318 314 311 310 312 313 312 312 313 316 316 315 315 316 319 321 322 320 320 321 323 322 319 316 314 313 313 313 314 315 315 315 315 313 312 310
337 345 351 355 357 358 359 359 359 360 1 2 2 1 359 356 354 354 355 356 355 355 354 354 353 350 348 345 344 343 342 340 341 342 344 345 346 345 345 343 341 338 334 332 329 326 324 323 322 320 317 313 310 309 311 314 314 313 313 314 314 312 312 314 317 319 320 319 319 321 321 319 316 314 313 312 311 310 311 313 315 316 316 315 313 311
341 351 358 3 6 7 7 6 6 6 6 7 7 7 7 4 1 360 358 358 358 357 356 355 352 349 347 345 345 344 342 340 339 340 340 342 342 342 341 340 338 336 333 331 328 326 324 323 321 320 318 314 311 310 311 313 313 313 313 312 311 310 310 312 315 317 317 318 319 320 320 318 317 315 312 309 307 307 307 309 312 314 315 315 314 312
348 357 7 10 12 11 11 10 9 8 8 7 8 8 8 7 5 4 3 2 360 358 356 355 352 349 346 346 345 344 343 340 339 338 339 340 340 339 337 337 336 334 332 330 328 326 324 322 321 320 319 316 313 310 309 310 312 312 311 310 309 309 309 310 313 315 316 317 318 318 318 318 317 315 312 308 306 305 305 306 307 309 312 314 313 312
350 2 12 15 14 12 10 9 7 6 5 5 5 5 6 7 6 6 5 3 1 358 356 355 353 350 347 345 344 343 341 339 337 336 337 339 338 337 336 336 335 333 331 329 327 325 323 321 319 319 320 321 319 314 310 309 309 309 308 309 310 311 311 311 313 316 317 317 317 317 316 316 315 314 311 308 305 304 304 304 305 306 309 310 311 310